Rbgn^[z[y[W
メイン
   新天体発見情報
     Comet C/2017 E1 (Borisov)
投稿するにはまず登録を

フラット表示 前のトピック | 次のトピック
投稿者 スレッド
佐藤裕久
投稿日時: 2017-3-9 23:58
モデレータ
登録日: 2005-6-12
居住地: 日本
投稿: 1786
オンライン
Comet C/2017 E1 (Borisov)

Gennadii Vladimirovich Borisov (Nauchnij, クリミヤ)の通報によると、3月1.10日UT、Nauchnij近郊
の"Mobil Astronomical Robotics Genon" Observatory (MARGO)の0.4-m f/2.3 アストログラフで得た、
3枚のフィルターなし120秒露出により、20"のコマのある拡散した彗星を発見した。
0'.5の円形範囲で測定したこの彗星のr-バンド全光度は17.0等であった。
小惑星センターのPCCP webpageに公表後、 R. S. McMillan (Arizona大学, Kitt Peak, Spacewatch 1.8-m
f/2.7 反射望遠鏡)、佐藤英貴氏(東京都文京区, iTelescope天文台, 0.25-m f/3.4 アストログラフ+輝度
フィルター, Mayhill近郊, ニューメキシコ州、遠隔操作)や門田健一氏(埼玉県上尾市, 0.25-m f/5 反射
望遠鏡)CCD位置観測者によって彗星状と観測された。
眼視観測では、吉田誠一氏(観測場所:茨城県常陸大宮市・花立山自然公園、0.40-m f/4.5 反射望遠鏡)が、
全光度12.2、視直径1'.4 (淡くて限界に近い。低空かつ微光星が多いので、過大に見積もったかもしれない)
と観測した。

発見位置は次のとおり、

     2017 UT             R.A. (2000) Decl.       Mag.   Observer
     Mar.  1.10404   19 05 32.18   -10 33 48.1   17.0   Borisov
           1.12545   19 05 39.05   -10 33 45.5   17.0     "
           1.12847   19 05 40.19   -10 33 44.4   17.0     "

暫定放物線軌道要素と位置推算表は次のとおり、

Orbital elements:
    C/2017 E1 (Borisov)
T 2017 Apr.  9.87051 TT                                 MPCW
q   0.9035830            (2000.0)            P               Q
                   Peri.  151.90161     +0.42605034     +0.89182595
                   Node   142.73794     -0.86997585     +0.44999225
e   1.0            Incl.   14.54713     -0.24824004     -0.04640525
>From 53 observations 2017 Mar. 1-4.

Ephemeris:
    C/2017 E1 (Borisov)
Date    TT    R. A. (2000) Decl.     Delta      r     Elong.  Phase   m1
2017 02 02    16 57 47.3 -10 26 50   1.6889  1.4612    59.5    35.5  16.8
...
2017 02 17    18 03 58.9 -10 59 07   1.4878  1.2797    58.1    41.0  15.9
...
2017 02 25    18 43 57.0 -10 48 22   1.4097  1.1891    56.2    43.8  15.5
...
2017 03 03    19 15 42.1 -10 24 50   1.3668  1.1257    54.2    45.6  15.2
2017 03 04    19 21 06.8 -10 19 33   1.3610  1.1156    53.9    45.9  15.1
2017 03 05    19 26 33.2 -10 13 54   1.3556  1.1056    53.5    46.2  15.1
...
2017 03 11    19 59 40.4 -09 32 00   1.3318  1.0493    51.2    47.5  14.8
...
2017 03 19    20 44 26.7 -08 16 19   1.3225  0.9853    47.8    48.4  14.5
...
2017 04 03    22 06 20.7 -05 10 15   1.3679  0.9121    41.8    46.9  14.3

(CBET 4369、MPEC 2017-E42、oaa-comet 197、201)

フラット表示 前のトピック | 次のトピック

題名 投稿者 日時
 » Comet C/2017 E1 (Borisov) 佐藤裕久 2017-3-9 23:58

投稿するにはまず登録を
 
© 1999-2013 Tsutomu Seki.